Find Starlink 35023

NORAD ID: 65279 Int'l Des: 2025-184 Owner: SPXS Country: US Constellation: starlink operational
LEOCIRCULARRETROGRADESSO

当前视图

正在加载3D地球...

About Starlink 35023

Starlink 35023 (NORAD 65279) is a starlink constellation satellite (v2 mini) launched Aug 22, 2025 by SPXS of US. It operates in LEO, CIRCULAR, RETROGRADE, SSO orbit with a mass of 575.00 kg.

即将过境

Passes for default location (London). Set your location on the main map for personalized predictions.

高度历史

Loading altitude history...

两行轨道根数

1 65279U 25184G 26238.12534440 .00005170 00000-0 16235-3 0 9996
2 65279 97.2844 286.4296 0001732 100.6864 259.4573 15.33445094 56835
Epoch: Aug 26, 2026 • Age: 6 hours

当前状态

高度 494.9 km
远地点 / 近地点 N/A
速度 7.62 km/s
星下点 -80.86°S, 52.98°W
发射日期 Aug 22, 2025
运行时间 1 year
类型 internet

技术详情

分类 Payload
质量 575.00 kg
干质量 530.00 kg
总质量 575.00 kg
长度 0.30 m
直径 4.10 m
跨度 29.00 m
形状 Box + pan
制造商 SPXS
平台类型 Starlink V2MO
阶段状态 In Orbit
所有者/国家 SPXS/US

Most Searched